User: anonymous   Login
Location: Brno
(49.2000°N, 16.6330°E)
Time: 12:06:01
(UTC+01:00)
Language:

RESURS DK-1 - Orbit

View from above orbital plane
View from above orbital plane
View from above satellite
View from above satellite

Ground track
Ground track

The orbit data is extracted from the following two-line orbital elements,

1 29228U 06021A   14330.14913355  .00001728  00000-0  14251-3 0  4601
2 29228 069.9366 312.9502 0006772 308.3369 132.9629 15.01009690467875
Epoch (UTC): 26 November 2014 03:34:45
Eccentricity: 0.0006772
inclination: 69.9366°
perigee height: 559 km
apogee height: 568 km
right ascension of ascending node: 312.9502°
argument of perigee: 308.3369°
revolutions per day: 15.01009690
mean anomaly at epoch: 132.9629°
orbit number at epoch: 46787

The dashed part of the orbit path shows where the satellite is in the earth's shadow,  

DLR